sat.trackr.live / text

‹ back to catalog

STARLINK-4061

NORAD 53247 · 2022-086F

PAYLOAD ACTIVE UNKNOWN

§ Identity

Operator
Country
US
Launch date
2022-07-24
Launch site
AFETR
Launch vehicle
Mass (kg)
RCS (m²)

Purposes: comms

External: N2YO · Heavens-Above · Gunter

§ Orbital elements

Epoch: 2026-05-25T05:24:58.021920Z

Period
95.44 min
Inclination
53.2138°
Eccentricity
0.0001331
Mean motion
15.08849121 rev/d
Perigee alt
538.8 km
Apogee alt
540.6 km
Semi-major
6,917.9 km
B*
-1.6341e-4
RAAN
215.7196°
Arg perigee
91.6819°
Mean anomaly
268.4326°
Rev number
21,286

§ Raw data

STARLINK-40611 53247U 22086F   26145.22567155 -.00002888  00000+0 -16341-3 0  99952 53247  53.2138 215.7196 0001331  91.6819 268.4326 15.08849121212867

JSON: /api/v1/satellites/53247 · /tle

For live sub-satellite position, see the globe view (requires WebGL).

§ Visibility from observer

Set your observer location to see the next 7 days of passes ≥ 10°. The values pass through the URL so the page stays shareable.

No JS? Fill the form by hand. The geolocation button needs JavaScript.